Regional Weather Roundup
Issued by NWS

Home | Current Version | Previous Version | Text Only | Print | Product List | Glossary Off
Versions: 1 2 3 4 5 6 7 8 9 10 11 12 13 14 15 16 17 18 19 20 21 22 23 24 25 26 27 28 29 30 31 32 33 34 35 36 37 38 39 40 41 42 43 44 45 46 47 48 49 50

000
ASUS44 KMEG 061200
RWRTN
TENNESSEE HOURLY STATE WEATHER ROUNDUP
NATIONAL WEATHER SERVICE MEMPHIS TN
600 AM CST FRI MAR 06 2015

TNZ002-004-019-021-049-052-054-088>092-061300-
WEST TENNESSEE

CITY           SKY/WX    TMP DP  RH WIND       PRES   REMARKS
MEMPHIS INTL   PTCLDY    16   8  71 NE5       30.59R WCI   9
NWS MEMPHIS      N/A     10 N/A N/A MISG        N/A
JACKSON        CLEAR      7   4  87 CALM      30.59R
DYERSBURG      PTCLDY     9  -6  52 CALM      30.61F
UNION CITY     MOCLDY    -4  -6  92 CALM      30.58F
PARIS            N/A     -2  -8  78 CALM      30.57S
LEXINGTON      CLEAR      5   1  85 CALM      30.56S
SAVANNAH       CLEAR     10   7  85 CALM      30.57S
$$

TNZ008-025-027-028-033-062-065-066-061300-
NORTH MIDDLE TENNESSEE

CITY           SKY/WX    TMP DP  RH WIND       PRES   REMARKS
NASHVILLE      PTCLDY    11   6  81 NW5       30.56S WCI   3
CLARKSVILLE    MOCLDY     2  -2  83 W3        30.58R
COOKEVILLE     CLEAR     12  10  92 N5        30.48R WCI   4
CROSSVILLE     MOCLDY    12   7  80 NE5       30.40F WCI   4
$$

TNZ061-075-076-078-094-096-097-061300-
SOUTH MIDDLE TENNESSEE

CITY           SKY/WX    TMP DP  RH WIND       PRES   REMARKS
FAYETTEVILLE   CLEAR     10   9  92 N5          N/A  WCI   2
TULLAHOMA      CLEAR     10   7  85 N5          N/A  WCI   2
WINCHESTER     CLEAR     12  12 100 CALM      30.47S
COLUMBIA         N/A      9   9 100 CALM      30.52S
SHELBYVILLE    CLEAR     12   9  85 N6        30.52R WCI   3
$$

TNZ017-018-042-046-047-061300-
NORTHEAST TENNESSEE

CITY           SKY/WX    TMP DP  RH WIND       PRES   REMARKS
TRI CITIES     PTCLDY    14   8  77 N3        30.46S
ELIZABETHTON   PTSUNNY   16  12  86 CALM      30.43S
$$

TNZ012-013-036-069-073-074-061300-
CENTRAL EAST TENNESSEE

CITY           SKY/WX    TMP DP  RH WIND       PRES   REMARKS
KNOXVILLE      FLURRIES  19  14  81 N8        30.47S WCI   9
OAK RIDGE      MOCLDY    17   9  70 NE5       30.50S WCI  10
GATLINBURG     CLOUDY    19  16  86 NE8       30.46S WCI   9
$$

TNZ083-085-099-061300-
SOUTHEAST TENNESSEE

CITY           SKY/WX    TMP DP  RH WIND       PRES   REMARKS
CHATTANOOGA    PTCLDY    23  13  65 N14       30.46S WCI  11
$$

SKY/WX REPORTED AS FAIR MEANS FEW OR NO CLOUDS BELOW
12 THOUSAND FEET.




USA.gov is the U.S. government's official web portal to all federal, state and local government web resources and services.